Weather in Wicklow

Ireland     52°58′48″N   6°02′51″W
temp.,
°C
wind,
m/s
gust,
m/s
humid.,
%
clouds,
%
prec.,
mm/h
press.,
hPa
HPBL,
m
23 may, mon
mon2301:00+10wsw5108486 0.1 1005394
04:00+10sw2386100 0.0 1004112
07:00+11wsw238484 0.0 1003127
10:00+12nnw2472100 0.0 1003378
13:00+13sw1375100 0.6 1002469
16:00+14nw566897 2.3 1001855
19:00+12wnw588193 5.6 1000343
22:00+11wnw4784100 2.3 1002195
24 may, tue
tue2401:00+9wnw46875 2.5 1002146
04:00+8wnw47881 0.0 1003192
07:00+9wnw598312 0.0 1004596
10:00+11wnw46723 0.0 1006725
13:00+14wnw476396 0.1 1007596
16:00+14wsw466188 0.1 1006541
19:00+13wsw4773100 1.0 1007441
22:00+11wsw5875100 0.1 1008302
25 may, wed
wed2501:00+11sw61279100 0.1 1008641
04:00+11sw71387100 0.3 1006732
07:00+12sw71287100 0.6 1006577
10:00+13w81276100 0.2 1008516
13:00+15w7116445 0.3 1010598
16:00+15wnw71164100 0.0 1013561
19:00+14w6968100 0.1 1015416
22:00+12wsw5972100 0.0 1017322
26 may, thu
thu2601:00+11sw61076100 0.0 1017376
04:00+12sw71378100 0.0 1016451
07:00+13sw71282100 0.0 1017490
10:00+14wsw7118299 0.1 1018417
13:00+14wsw61185100 0.1 1018406
16:00+13w4888100 0.3 1019335
19:00+14w5879100 0.4 1020320
22:00+12wnw468028 0.0 102296
27 may, fri
fri2701:00+10nw5107711 0.0 1024530
04:00+8wnw387614 0.0 1024360
07:00+8sw337966 0.0 1026142
10:00+12s2264100 0.0 1027414
13:00+12se546838 0.0 1027460
16:00+15s2465100 0.0 1026541
19:00+14ene3477100 0.0 1027277
22:00+12s118537 0.0 102810